TimeAKST,TemperatureF,Dew PointF,Humidity,Sea Level PressureIn,VisibilityMPH,Wind Direction,Wind SpeedMPH,Gust SpeedMPH,PrecipitationIn,Events,Conditions,WindDirDegrees,DateUTC
12:53 AM,6.1,1.0,80,30.05,8.0,Calm,Calm,-,N/A,,Clear,0,2012-11-25 09:53:00
1:53 AM,6.1,1.9,83,30.06,8.0,Calm,Calm,-,N/A,,Overcast,0,2012-11-25 10:53:00
3:53 AM,9.0,3.9,80,30.07,10.0,Calm,Calm,-,N/A,,Overcast,0,2012-11-25 12:53:00
4:53 AM,10.9,7.0,84,30.08,10.0,Calm,Calm,-,N/A,,Overcast,0,2012-11-25 13:53:00
5:53 AM,12.0,8.1,84,30.08,10.0,Calm,Calm,-,N/A,,Overcast,0,2012-11-25 14:53:00
6:53 AM,12.0,7.0,80,30.09,10.0,NNE,3.5,-,N/A,,Mostly Cloudy,20,2012-11-25 15:53:00
7:53 AM,12.0,7.0,80,30.10,10.0,NNE,3.5,-,N/A,,Scattered Clouds,20,2012-11-25 16:53:00
8:53 AM,10.9,7.0,84,30.12,10.0,Calm,Calm,-,N/A,,Clear,0,2012-11-25 17:53:00
9:53 AM,10.0,6.1,84,30.13,10.0,Calm,Calm,-,N/A,,Clear,0,2012-11-25 18:53:00
10:53 AM,10.0,6.1,84,30.14,10.0,Calm,Calm,-,N/A,,Clear,0,2012-11-25 19:53:00
11:53 AM,10.9,7.0,84,30.15,10.0,ESE,3.5,-,N/A,,Clear,110,2012-11-25 20:53:00
12:53 PM,15.1,9.0,77,30.15,10.0,Calm,Calm,-,N/A,,Clear,0,2012-11-25 21:53:00
1:53 PM,16.0,8.1,71,30.16,10.0,ENE,4.6,-,N/A,,Clear,70,2012-11-25 22:53:00
2:53 PM,14.0,7.0,74,30.16,10.0,ENE,3.5,-,N/A,,Clear,70,2012-11-25 23:53:00
3:53 PM,15.1,7.0,70,30.16,10.0,Calm,Calm,-,N/A,,Clear,0,2012-11-26 00:53:00
4:53 PM,12.0,5.0,73,30.17,10.0,Calm,Calm,-,N/A,,Clear,0,2012-11-26 01:53:00
5:53 PM,10.9,6.1,81,30.18,10.0,East,3.5,-,N/A,,Clear,90,2012-11-26 02:53:00
6:53 PM,10.9,6.1,81,30.19,10.0,East,3.5,-,N/A,,Clear,90,2012-11-26 03:53:00
7:53 PM,8.1,3.0,80,30.20,10.0,Calm,Calm,-,N/A,,Clear,0,2012-11-26 04:53:00
8:53 PM,8.1,3.0,80,30.21,10.0,Calm,Calm,-,N/A,,Clear,0,2012-11-26 05:53:00
9:53 PM,8.1,3.9,83,30.22,10.0,Calm,Calm,-,N/A,,Clear,0,2012-11-26 06:53:00
10:53 PM,6.1,1.9,83,30.24,9.0,Calm,Calm,-,N/A,,Clear,0,2012-11-26 07:53:00
11:53 PM,7.0,3.0,84,30.25,10.0,Calm,Calm,-,N/A,,Clear,0,2012-11-26 08:53:00